Home   Weather   43°12'N, 87°59'W   Past weeks
Flag for USA

Past Weather in 43°12'N, 87°59'W, USA — Yesterday and Last 2 Weeks

Now
63 °F

Passing clouds.


Feels Like: 63 °F
Forecast: 78 / 60 °F
Wind: 7 mph from West

Location: Milwaukee / Timmerman

Current Time: Jul 23, 2019 at 12:24:20 am

Latest Report: Jul 22, 2019 at 11:35 pm


Visibility: 10 mi

Pressure: 30.10 "Hg

Humidity: 59%

Dew Point: 48 °F

Location of 43°12'N, 87°59'WLocation

Past Weather in 43°12'N, 87°59'W — Graph

°F

43°12'N, 87°59'W Temperature Yesterday

Maximum temperature yesterday: 73 °F (at 12:45 pm)
Minimum temperature yesterday: 61 °F (at 11:15 pm)
Average temperature yesterday: 66 °F

High & Low Weather Summary for the Past Weeks

 TemperatureHumidityPressure
High91 °F (Jul 19, 3:45 pm)88% (Jul 9, 4:35 am)30.18 "Hg (Jul 9, 4:35 am)
Low54 °F (Jul 8, 5:35 am)26% (Jul 8, 2:45 pm)29.73 "Hg (Jul 18, 1:45 pm)
Average72 °F65%29.96 "Hg
* Reported Jul 7 11:15 pm — Jul 22 11:15 pm, 43°12'N, 87°59'W. Weather by CustomWeather, © 2019

Note: Actual official high and low records may vary slightly from our data, if they occured in-between our weather recording intervals... More about our weather records

Advertising

43°12'N, 87°59'W Weather History for the Previous 24 Hours

Scroll right to see more
 ConditionsComfort  
Time TempWeatherWind HumidityBarometerVisibility
11:15 pm
Mon, Jul 22
61 °FPassing clouds.3 mph63%30.10 "Hg10 mi
10:55 pm63 °FPassing clouds.5 mph59%30.10 "Hg10 mi
10:35 pm63 °FClear.3 mph59%30.10 "Hg10 mi
10:15 pm63 °FClear.3 mph59%30.10 "Hg10 mi
9:55 pm64 °FClear.No wind56%30.10 "Hg10 mi
9:35 pm64 °FClear.No wind56%30.10 "Hg10 mi
9:15 pm64 °FClear.No wind60%30.10 "Hg10 mi
8:55 pm64 °FClear.No wind60%30.10 "Hg10 mi
7:45 pm72 °FSunny.No wind41%30.10 "Hg10 mi
6:45 pm73 °FSunny.6 mph36%30.10 "Hg10 mi
5:45 pm73 °FSunny.6 mph36%30.09 "Hg10 mi
4:45 pm73 °FScattered clouds.6 mph36%30.10 "Hg10 mi
3:45 pm73 °FScattered clouds.8 mph38%30.10 "Hg10 mi
2:45 pm73 °FScattered clouds.7 mph38%30.10 "Hg10 mi
1:45 pm73 °FPartly sunny.10 mph38%30.09 "Hg10 mi
12:45 pm73 °FScattered clouds.16 mph36%30.10 "Hg10 mi
11:45 am72 °FSunny.8 mph38%30.11 "Hg10 mi
10:45 am70 °FSunny.10 mph38%30.11 "Hg10 mi
9:45 am70 °FSunny.9 mph40%30.11 "Hg10 mi
8:45 am66 °FSunny.14 mph46%30.11 "Hg10 mi
7:45 am64 °FOvercast.7 mph52%30.11 "Hg10 mi
7:00 am63 °FScattered clouds.8 mph59%30.09 "Hg10 mi
6:35 am63 °FPartly sunny.13 mph56%30.09 "Hg10 mi
6:15 am63 °FPartly sunny.9 mph59%30.09 "Hg10 mi
5:55 am63 °FPartly sunny.7 mph56%30.08 "Hg10 mi
5:35 am63 °FBroken clouds.8 mph56%30.07 "Hg10 mi
5:15 am63 °FMostly cloudy.13 mph56%30.06 "Hg10 mi
4:55 am63 °FMostly cloudy.9 mph64%30.06 "Hg10 mi
4:35 am63 °FOvercast.10 mph64%30.05 "Hg10 mi
4:15 am64 °FMostly cloudy.8 mph60%30.05 "Hg10 mi
3:55 am64 °FOvercast.8 mph60%30.06 "Hg10 mi
3:35 am64 °FMostly cloudy.10 mph60%30.05 "Hg10 mi
3:15 am64 °FPassing clouds.12 mph64%30.05 "Hg10 mi
2:55 am64 °FPassing clouds.9 mph68%30.05 "Hg10 mi
2:35 am64 °FOvercast.9 mph68%30.05 "Hg10 mi
2:15 am64 °FOvercast.10 mph68%30.04 "Hg10 mi
1:55 am64 °FPassing clouds.10 mph68%30.04 "Hg10 mi
1:35 am64 °FPassing clouds.10 mph68%30.04 "Hg10 mi
1:15 am64 °FPassing clouds.9 mph73%30.03 "Hg10 mi
12:55 am64 °FClear.5 mph73%30.04 "Hg10 mi
12:35 am64 °FClear.7 mph73%30.04 "Hg10 mi
12:15 am64 °FClear.7 mph73%30.04 "Hg10 mi
Weather by CustomWeather, © 2019

See weather overview